Location: Kouchibouguac National Park
(46.8081°N, 64.9088°W)
Time: 23:59:21
(UTC-03:00)

Daily predictions for brighter satellites

Satellite Brightness Start Highest point End
(mag) Time Altitude Azimuth Time Altitude Azimuth Time Altitude Azimuth
Cosmos 407 Rocket 4.0 21:30:51 10° NNW 21:35:55 47° ENE 21:41:01 10° SE
CZ-4 SHROUD 4.2 21:36:13 10° SE 21:39:00 31° ENE 21:41:49 10° N
Cosmos 2074 Rocket 4.0 21:33:04 10° S 21:39:18 71° E 21:45:33 10° NNE
ERBS 2.4 21:35:57 10° NW 21:39:26 78° SW 21:42:53 10° SE
Cosmos 1238 Rocket 4.0 21:37:52 10° NNE 21:40:04 18° ENE 21:42:23 10° ESE
COSMOS 2406 3.3 21:36:27 10° NNW 21:42:16 87° ENE 21:47:59 10° SSE
Cosmos 1190 Rocket 4.1 21:41:21 10° NNW 21:46:33 69° ENE 21:51:43 10° SSE
SPOT 5 3.2 21:41:24 10° SSE 21:46:35 67° ENE 21:51:55 10° N
Meteor 1-10 Rocket 4.3 21:41:17 10° N 21:47:13 81° E 21:52:58 10° SSE
Nadezhda 3 Rocket 4.4 21:44:06 10° N 21:50:16 51° ENE 21:56:27 10° SSE
ERS-1 Rocket 3.6 21:45:20 10° S 21:50:18 59° WSW 21:55:18 10° NNW
H-2A R/B 2.2 21:48:38 10° S 21:52:59 78° WSW 21:57:16 10° NNW
MetOp-B 4.3 21:48:02 10° SSE 21:53:18 63° ENE 21:58:36 10° N
Cosmos 1356 Rocket 3.6 21:50:59 10° SSW 21:55:13 84° W 21:59:32 10° N
ATLAS 5 CENTAUR R/B 2.6 21:52:57 10° NW 21:58:53 69° SW 22:05:14 10° SSE
PSLV R/B 3.1 21:57:08 10° SSE 22:00:03 65° ENE 22:03:00 10° N
Cosmos 1862 4.1 21:58:04 10° SSE 22:01:45 35° E 22:05:29 10° NNE
ARGOS 3.6 21:57:03 10° SE 22:02:10 48° ENE 22:07:18 10° N
USA 234 4.1 21:57:03 10° ENE 22:02:24 26° SE 22:07:43 10° S
Terra 3.4 21:59:15 10° ESE 22:02:48 21° ENE 22:06:22 10° NNE
Cosmos 2278 Rocket 3.2 22:02:37 10° SSE 22:07:13 26° ESE 22:11:50 10° NE
Gbstr 26 Del rocket 4.3 22:02:21 10° W 22:07:49 49° N 22:12:15 10° ENE
Okean 2 Rocket 4.2 22:05:25 12° SE 22:08:38 26° E 22:12:19 10° NNE
Cosmos 2341 Rocket 4.4 22:02:51 10° SSE 22:08:50 47° E 22:14:49 10° NNE
Cosmos 1844 4.2 22:04:04 10° S 22:09:24 40° ESE 22:14:47 10° NE
CZ-4B R/B 3.9 22:05:20 10° NNE 22:10:05 40° E 22:14:39 10° SSE
Cosmos 1833 Rocket 4.4 22:06:22 10° N 22:10:38 21° NE 22:14:52 10° E
Sich 1 Rocket 3.6 22:07:16 10° S 22:11:50 72° E 22:16:25 10° NNE
Cosmos 676 Rocket 4.0 22:11:03 10° NNW 22:16:16 75° ENE 22:20:44 14° SSE
Meteor 1-27 Rocket 3.7 22:13:08 10° N 22:18:47 87° E 22:24:15 10° S
Cosmos 1674 Rocket 4.2 22:15:13 10° NNW 22:19:37 57° W 22:23:58 10° S
Cosmos 1844 Rocket 2.7 22:15:09 10° SSW 22:20:44 65° ESE 22:26:21 10° NNE
Cosmos 2056 Rocket 3.6 22:15:44 10° SSW 22:20:55 82° WNW 22:26:04 10° NNE
CZ-4C R/B 4.3 22:18:36 16° SE 22:21:07 33° ENE 22:24:44 10° N
Cosmos 1825 2.4 22:19:37 12° SSE 22:22:55 50° E 22:26:38 10° NNE
Cosmos 2082 Rocket 3.5 22:18:18 10° NNW 22:23:18 30° NE 22:27:47 12° ESE
Cosmos 1954 Rocket 4.1 22:18:49 10° NNW 22:24:01 69° ENE 22:28:06 17° SSE
Cosmos 1174 3.2 22:21:16 10° NNW 22:24:43 80° NE 22:26:35 22° SE
Cosmos 1782 3.9 22:24:26 10° NNW 22:28:15 43° W 22:32:03 10° SSW
Cosmos 1461 4.4 22:24:13 10° WSW 22:28:40 44° NW 22:33:00 10° NNE
Cosmos 1184 Rocket 3.2 22:30:38 20° SSE 22:32:34 44° E 22:35:46 10° NNE
DNEPR-1 R/B 4.5 22:27:05 10° NNW 22:32:46 52° NE 22:36:19 17° ESE
Cosmos 1782 Rocket 3.7 22:30:15 14° S 22:34:01 57° E 22:38:25 10° NNE
CENTAUR R/B 4.1 22:28:23 10° NW 22:35:32 39° WSW 22:43:02 10° S
Cosmos 2263 Rocket 4.4 22:31:07 10° WSW 22:35:59 29° NW 22:40:51 10° N
Cosmos 962 Rocket 4.4 22:30:50 10° S 22:36:56 75° E 22:43:10 10° NNE
SL-8 Rocket 4.4 22:32:33 15° SSE 22:37:29 47° E 22:43:26 10° NNE
COSMOS 2487 2.6 22:34:03 10° NNW 22:37:41 68° ENE 22:39:40 24° SE
CZ-4 R/B 3.9 22:34:02 10° NNE 22:38:40 54° E 22:42:22 15° S
SL-27 R/B 4.1 22:36:11 10° NW 22:39:26 30° WSW 22:42:35 10° SSW
Cosmos 2154 Rocket 4.1 22:35:26 10° S 22:41:40 82° W 22:47:54 10° N
USA 229 DEB 4.5 22:35:32 10° NW 22:42:21 47° NE 22:48:23 14° ESE
USA 229 4.5 22:35:38 10° NW 22:42:26 47° NE 22:48:30 14° ESE
YAOGAN 6 3.6 22:40:07 12° SSW 22:43:09 41° W 22:46:31 10° NNW
IGS 5A 4.2 22:41:30 22° SE 22:43:42 39° ENE 22:47:36 10° N
Cosmos 1408 2.5 22:40:58 14° S 22:44:08 90° SSW 22:47:48 10° N
SL-8 R/B 3.6 22:40:05 10° WSW 22:44:51 65° SSE 22:49:37 10° ENE
COS B Rocket 4.5 22:42:21 10° N 22:46:29 45° W 22:50:18 10° SSW
NOSS 2-2 (D) 4.1 22:42:22 10° SW 22:46:34 66° NW 22:51:40 10° NE
Cosmos 1975 Rocket 3.0 22:42:58 10° N 22:47:18 88° W 22:50:14 20° S
SL-08 RB Rocket 3.8 22:46:49 19° S 22:50:08 80° WSW 22:54:48 10° NNW
Cosmos 1606 4.0 22:47:10 10° NNW 22:50:51 38° W 22:54:20 11° SSW
NOAA 11 4.4 22:47:01 15° S 22:51:32 72° WSW 22:57:04 10° NNW
CARTOSAT-1 3.8 22:50:36 25° SE 22:52:55 57° ENE 22:57:10 10° N
Okean 3 3.9 22:50:19 10° NNW 22:54:35 62° W 22:57:39 18° S
Elektron 3 4.2 22:54:04 10° NW 22:56:54 58° SW 22:58:24 30° SSE
H-2A R/B 2.1 22:56:04 23° SSE 22:59:34 77° ENE 23:04:55 10° N
Cosmos 1536 Rocket 4.2 22:55:41 10° N 22:59:58 43° ENE 23:01:53 27° SE
USA 245 4.3 22:58:30 16° SSW 23:00:28 32° W 23:03:48 10° NNW
Cosmos 1242 Rocket 2.6 22:57:55 10° NNW 23:01:34 80° W 23:03:15 30° S
Cosmos 1023 Rocket 4.4 22:57:37 10° NNW 23:02:45 84° WSW 23:05:42 26° SSE
Cosmos 1295 Rocket 4.5 22:58:16 13° S 23:04:03 86° E 23:10:23 10° N
Cosmos 1420 Rocket 4.0 23:06:05 19° S 23:09:52 64° ESE 23:15:03 10° NNE
Cosmos 2151 Rocket 3.8 23:11:38 31° SSE 23:13:31 55° E 23:17:57 10° NNE
Intercosmos 25 3.3 23:12:07 20° SSW 23:14:30 65° W 23:17:41 10° N
Cosmos 2366 rocket 4.0 23:11:29 23° S 23:15:30 66° E 23:21:46 10° NNE
Meteor 1-18 Rocket 4.4 23:12:41 10° N 23:18:34 69° ENE 23:21:39 29° SSE
Meteor 1-14 Rocket 4.2 23:17:34 21° S 23:21:26 82° E 23:27:05 10° NNE
Cosmos 1452 Rocket 4.2 23:19:10 10° SW 23:24:19 55° WNW 23:29:32 10° NNE
Landsat 7 4.4 23:21:41 23° SSW 23:24:26 53° W 23:29:07 10° NNW
SAR-Lupe-2 3.4 23:28:10 52° SSE 23:28:59 88° ENE 23:32:35 10° NNW
ASTEX 1 3.6 23:26:19 10° NNE 23:31:11 55° E 23:32:54 37° SSE
BREEZE-M TANK 3.0 23:23:34 10° W 23:34:12 76° S 23:35:56 32° ESE
Cosmos 614 Rocket 4.0 23:29:19 10° NNW 23:34:23 68° WSW 23:36:33 34° S
Cosmos 2084 3.1 23:32:18 20° SW 23:34:52 89° NW 23:38:44 10° NE
Cosmos 1140 Rocket 4.2 23:30:11 10° NNW 23:35:04 45° WSW 23:37:36 25° SSW
Spot 4 3.9 23:34:21 34° S 23:36:27 75° WSW 23:41:20 10° NNW
Cosmos 2218 Rocket 4.1 23:32:39 19° SSW 23:37:22 78° W 23:43:49 10° N
Okean 1-7 Rocket 4.2 23:34:48 10° N 23:39:10 45° ENE 23:40:18 37° ESE
DMSP B5D2-2 4.1 23:34:45 10° NNE 23:39:59 82° WNW 23:43:08 25° SSW
Terra 2.3 23:37:58 29° SSW 23:40:12 53° W 23:44:52 10° NNW
USA 234 3.2 23:39:25 10° NE 23:46:00 85° SE 23:52:33 10° SW
Okean 1 Rocket 3.5 23:47:20 42° ESE 23:48:03 46° E 23:52:22 10° NNE
Cosmos 2278 Rocket 2.9 23:45:24 10° SW 23:50:57 54° WNW 23:56:33 10° NNE
Cosmos 1727 Rocket 4.2 23:46:08 10° NNW 23:52:15 67° W 23:55:27 29° SSW
Cosmos 1300 Rocket 3.7 23:52:19 50° SE 23:53:08 60° E 23:57:32 10° NNE
Cosmos 1025 Rocket 4.1 23:50:21 10° N 23:54:20 33° ENE 23:55:10 30° E
Gbstr 26 Del rocket 3.6 23:50:29 10° WNW 23:55:21 57° NNE 23:57:43 24° E
